This demonstration page uses our WeatherBlox Daily Observations layout. Learn more.

Left ArrowRight Arrow

Hourly Observations for October 5, 2022

Temp ( °F °C ) Dew Point ( °F °C ) Humidity (%) Winds ( mph kmh ) Pressure ( in mb ) Visibility ( mi km ) Precip ( " mm )
12:53 am 00:53 Clear 53 11.7 50 10 89 89 Calm 30.06 1018 10 16 0.00 0.00
1:53 am 01:53 Clear 51 10.6 49 9.4 92 92 Calm 30.06 1018 10 16 0.00 0.00
2:53 am 02:53 Clear 50 10 48 8.9 93 93 Calm 30.05 1018 10 16 0.00 0.00
3:53 am 03:53 Clear 52 11.1 49 9.4 89 89 Calm 30.05 1018 10 16 0.00 0.00
4:53 am 04:53 Clear 48 8.9 46 7.8 93 93 Calm 30.04 1017 10 16 0.00 0.00
5:53 am 05:53 Clear 48 8.9 46 7.8 93 93 Calm 30.05 1018 10 16 0.00 0.00
6:53 am 06:53 Clear 47 8.3 46 7.8 97 97 Calm 30.06 1018 9 14 0.00 0.00
7:53 am 07:53 Sunny with Mist and Fog 46 7.8 46 7.8 100 100 Calm 30.07 1018 5 8 0.00 0.00
8:53 am 08:53 Sunny 53 11.7 49 9.4 86 86 Calm 30.09 1019 10 16 0.00 0.00
9:53 am 09:53 Sunny 58 14.4 45 7.2 62 62 WNW 5 7 30.10 1019 10 16 0.00 0.00
10:53 am 10:53 Sunny 64 17.8 44 6.7 48 48 VRB 5 7 30.10 1019 10 16 0.00 0.00
11:53 am 11:53 Sunny 69 20.6 41 5 36 36 WNW 6 9 30.09 1019 10 16 0.00 0.00
12:53 pm 12:53 Sunny 74 23.3 38 3.3 27 27 NNW 9 15 30.07 1018 10 16 0.00 0.00
1:53 pm 13:53 Sunny 76 24.4 37 2.8 24 24 NNW 10 17 30.05 1018 10 16 0.00 0.00
2:53 pm 14:53 Sunny 77 25 37 2.8 24 24 NNW 7 11 30.03 1017 10 16 0.00 0.00
3:53 pm 15:53 Sunny 78 25.6 36 2.2 22 22 NW 7 11 30.01 1016 10 16 0.00 0.00
4:53 pm 16:53 Sunny 78 25.6 38 3.3 24 24 NNW 6 9 30.01 1016 10 16 0.00 0.00
5:53 pm 17:53 Sunny 75 23.9 38 3.3 26 26 NNW 6 9 30.01 1016 10 16 0.00 0.00
6:53 pm 18:53 Sunny 72 22.2 41 5 33 33 NW 5 7 30.03 1017 10 16 0.00 0.00
7:53 pm 19:53 Clear 67 19.4 42 5.6 40 40 Calm 30.04 1017 10 16 0.00 0.00
8:53 pm 20:53 Clear 63 17.2 43 6.1 48 48 Calm 30.05 1018 10 16 0.00 0.00
9:53 pm 21:53 Clear 58 14.4 44 6.7 60 60 Calm 30.06 1018 10 16 0.00 0.00
10:53 pm 22:53 Clear 59 15 43 6.1 55 55 SSE 3 6 30.06 1018 10 16 0.00 0.00
11:53 pm 23:53 Clear 55 12.8 45 7.2 69 69 Calm 30.06 1018 10 16 0.00 0.00

Powered by AerisWeather